Starlink 35737

operational
NORAD ID: 66220 Int'l Des: 2025-244 Owner: SPXS Country: US Constellation: starlink
NOTLE

关于 Starlink 35737

正在加载描述...

实时位置

正在加载3D地球...

即将过境

高度历史

Altitude vs Time

uPlot chart will show altitude changes over time

两行轨道根数

1 66220C 25244P 25301.73798611 .03566700 00000+0 49240-2 0 3010
2 66220 53.1569 134.0916 0011116 274.4438 325.4198 16.01820745 10
Epoch: Oct 28, 2025 • Age: 91 hours

当前状态

高度 159.3 km
速度 7.81 km/s
星下点 13.56°N, 163.6°E
发射日期 Oct 28, 2025
运行时间 3 days
类型 internet

技术详情

分类 Payload
质量 575.00 kg
干质量 530.00 kg
总质量 575.00 kg
长度 0.30 m
直径 4.10 m
跨度 29.00 m
形状 Box + pan
制造商 SPXS
平台类型 Starlink V2MO
阶段状态 In Orbit
所有者/国家 SPXS/US

大型星座

Loading constellations...